Weather History for KBIE - August, 2014

Change the Weather History Date:

Saturday, August 23, 2014

  Actual Average Record
Temperature  
Mean Temperature 82 °F -  
Max Temperature 96 °F 87 °F 104 °F (1948)
Min Temperature 69 °F 63 °F 47 °F (1966)
Cooling Degree Days 18    
Growing Degree Days 32 (Base 50)    
Moisture  
Dew Point 68 °F    
Average Humidity 68    
Maximum Humidity 98    
Minimum Humidity 35    
Precipitation  
Precipitation 0.03 in - - ()
Sea Level Pressure  
Sea Level Pressure 29.84 in    
Wind  
Wind Speed 9 mph (SE)    
Max Wind Speed 18 mph    
Max Gust Speed 23 mph    
Visibility 10 miles    
Events Rain , Thunderstorm    
Averages and records for this station are not official NWS values.
T = Trace of Precipitation, MM = Missing Value Source: NWS Daily Summary

Daily Weather History Graph

Daily Weather History Graph

Search for Another Location

Airport or City:

Trip Planner

Search our weather history database for the weather conditions in past years. The results will help you decide how hot, cold, wet, or windy it might be!

Date:

Astronomy

Aug. 23, 2014 Rise Set
Actual Time 6:45 AM CDT 8:12 PM CDT
Civil Twilight 6:17 AM CDT 8:41 PM CDT
Nautical Twilight 5:42 AM CDT 9:15 PM CDT
Astronomical Twilight 5:06 AM CDT 9:51 PM CDT
Moon 5:03 AM CDT (8/23) 6:58 PM CDT (8/23)
Length of Visible Light 14h 23m
Length of Day
13h 26m
Waning Crescent, 3% of the Moon is Illuminated
Aug 23
Waning Crescent
Aug 25
New
Sep 2
First Quarter
Sep 8
Full
Sep 15
Last Quarter

Hourly Weather History & Observations

Time (CDT) Temp. Heat Index Dew Point Humidity Pressure Visibility Wind Dir Wind Speed Gust Speed Precip Events Conditions
12:15 AM 75.2 °F - 73.0 °F 93% 29.90 in 10.0 mi SE 3.5 mph - N/A   Scattered Clouds
12:35 AM 74.3 °F - 72.7 °F 95% 29.92 in 10.0 mi NE 3.5 mph - N/A   Scattered Clouds
12:55 AM 73.6 °F - 72.5 °F 96% 29.91 in 10.0 mi NE 3.5 mph - N/A   Scattered Clouds
1:15 AM 73.9 °F - 72.9 °F 96% 29.91 in 7.0 mi North 3.5 mph - N/A   Mostly Cloudy
1:35 AM 73.4 °F - 72.7 °F 98% 29.92 in 7.0 mi North 5.8 mph - N/A   Scattered Clouds
1:55 AM 73.6 °F - 72.7 °F 97% 29.91 in 7.0 mi North 8.1 mph - N/A   Scattered Clouds
2:15 AM 73.9 °F - 72.5 °F 95% 29.91 in 10.0 mi NNE 9.2 mph - N/A   Scattered Clouds
2:35 AM 75.2 °F - 71.6 °F 89% 29.94 in 10.0 mi North 18.4 mph 21.9 mph N/A Thunderstorm Overcast
2:55 AM 71.8 °F - 69.8 °F 93% 29.93 in 7.0 mi NNE 12.7 mph - 0.03 in Rain Light Rain
3:15 AM 70.7 °F - 69.4 °F 96% 29.91 in 10.0 mi NE 11.5 mph 16.1 mph N/A   Scattered Clouds
3:35 AM 70.7 °F - 69.1 °F 95% 29.90 in 10.0 mi ENE 11.5 mph - N/A   Mostly Cloudy
3:55 AM 70.2 °F - 68.5 °F 95% 29.89 in 10.0 mi NE 11.5 mph - N/A   Mostly Cloudy
4:15 AM 70.2 °F - 68.0 °F 93% 29.90 in 10.0 mi NE 12.7 mph 17.3 mph N/A   Overcast
4:35 AM 70.0 °F - 68.0 °F 93% 29.89 in 10.0 mi ENE 10.4 mph 17.3 mph N/A   Mostly Cloudy
4:55 AM 70.2 °F - 68.2 °F 93% 29.89 in 10.0 mi ENE 12.7 mph 18.4 mph N/A   Scattered Clouds
5:15 AM 70.3 °F - 68.4 °F 93% 29.88 in 10.0 mi East 9.2 mph - N/A   Scattered Clouds
5:35 AM 69.8 °F - 68.2 °F 95% 29.88 in 10.0 mi East 9.2 mph 17.3 mph N/A   Scattered Clouds
5:55 AM 69.8 °F - 68.2 °F 95% 29.88 in 10.0 mi East 9.2 mph - N/A   Scattered Clouds
6:15 AM 69.4 °F - 68.4 °F 96% 29.88 in 10.0 mi East 8.1 mph - N/A   Scattered Clouds
6:35 AM 69.3 °F - 68.4 °F 97% 29.87 in 10.0 mi East 8.1 mph - N/A   Scattered Clouds
6:55 AM 69.4 °F - 68.4 °F 96% 29.87 in 10.0 mi East 5.8 mph - N/A   Scattered Clouds
7:15 AM 69.3 °F - 68.4 °F 97% 29.88 in 10.0 mi ESE 6.9 mph - N/A   Clear
7:35 AM 69.4 °F - 68.4 °F 96% 29.88 in 10.0 mi ESE 9.2 mph - N/A   Clear
7:55 AM 69.8 °F - 68.5 °F 96% 29.88 in 10.0 mi ESE 11.5 mph - N/A   Clear
8:15 AM 71.1 °F - 68.9 °F 93% 29.88 in 10.0 mi SE 9.2 mph - N/A   Clear
8:35 AM 72.3 °F - 69.1 °F 89% 29.89 in 10.0 mi ESE 9.2 mph - N/A   Clear
8:55 AM 73.8 °F - 69.6 °F 87% 29.88 in 10.0 mi ESE 9.2 mph - N/A   Clear
9:15 AM 75.2 °F - 70.2 °F 84% 29.88 in 10.0 mi SE 11.5 mph 16.1 mph N/A   Clear
9:35 AM 76.5 °F - 70.7 °F 82% 29.88 in 10.0 mi SE 12.7 mph 17.3 mph N/A   Clear
9:55 AM 77.7 °F - 71.4 °F 81% 29.88 in 10.0 mi SE 9.2 mph - N/A   Clear
10:15 AM 78.8 °F - 72.0 °F 79% 29.88 in 10.0 mi SE 10.4 mph - N/A   Clear
10:35 AM 80.4 °F 84.4 °F 72.0 °F 75% 29.87 in 10.0 mi SE 11.5 mph 16.1 mph N/A   Clear
10:55 AM 82.4 °F 87.2 °F 71.8 °F 70% 29.87 in 10.0 mi SSE 10.4 mph - N/A   Clear
11:15 AM 83.3 °F 88.2 °F 71.2 °F 67% 29.87 in 10.0 mi South 11.5 mph - N/A   Clear
11:35 AM 84.6 °F 88.8 °F 70.0 °F 61% 29.86 in 10.0 mi South 11.5 mph 16.1 mph N/A   Clear
11:55 AM 85.6 °F 90.4 °F 70.2 °F 60% 29.85 in 10.0 mi SSE 9.2 mph - N/A   Clear
12:15 PM 87.3 °F 92.8 °F 70.9 °F 58% 29.85 in 10.0 mi South 9.2 mph - N/A   Clear
12:35 PM 87.3 °F 92.8 °F 71.1 °F 58% 29.85 in 10.0 mi South 11.5 mph 17.3 mph N/A   Clear
12:55 PM 88.9 °F 95.1 °F 71.4 °F 56% 29.85 in 10.0 mi South 10.4 mph 17.3 mph N/A   Clear
1:15 PM 90.1 °F 96.3 °F 70.7 °F 53% 29.84 in 10.0 mi South 12.7 mph 19.6 mph N/A   Clear
1:35 PM 90.7 °F 95.4 °F 68.9 °F 49% 29.83 in 10.0 mi South 11.5 mph - N/A   Clear
1:55 PM 92.3 °F 97.0 °F 69.1 °F 46% 29.83 in 10.0 mi South 12.7 mph - N/A   Clear
2:15 PM 92.7 °F 97.2 °F 68.4 °F 45% 29.83 in 10.0 mi South 13.8 mph 18.4 mph N/A   Clear
2:35 PM 92.8 °F 97.6 °F 68.4 °F 45% 29.82 in 10.0 mi South 9.2 mph - N/A   Clear
2:55 PM 93.4 °F 97.6 °F 68.0 °F 43% 29.82 in 10.0 mi SSE 15.0 mph - N/A   Clear
3:15 PM 94.3 °F 98.2 °F 67.5 °F 41% 29.81 in 10.0 mi South 15.0 mph 19.6 mph N/A   Clear
3:35 PM 94.8 °F 99.2 °F 67.6 °F 41% 29.81 in 10.0 mi South 13.8 mph 20.7 mph N/A   Clear
3:55 PM 95.2 °F 99.3 °F 67.5 °F 40% 29.80 in 10.0 mi SSE 10.4 mph 23.0 mph N/A   Clear
4:15 PM 95.9 °F 100.1 °F 67.1 °F 39% 29.80 in 10.0 mi South 13.8 mph 18.4 mph N/A   Clear
4:35 PM 96.1 °F 99.9 °F 66.9 °F 38% 29.79 in 10.0 mi SSE 13.8 mph 19.6 mph N/A   Clear
4:55 PM 96.1 °F 99.3 °F 66.2 °F 37% 29.78 in 10.0 mi South 15.0 mph 19.6 mph N/A   Clear
5:15 PM 96.8 °F 99.5 °F 65.3 °F 35% 29.78 in 10.0 mi SSE 17.3 mph 20.7 mph N/A   Clear
5:35 PM 96.8 °F 99.5 °F 65.3 °F 35% 29.77 in 10.0 mi South 11.5 mph 20.7 mph N/A   Clear
5:55 PM 96.1 °F 98.8 °F 65.1 °F 36% 29.77 in 10.0 mi South 15.0 mph - N/A   Clear
6:15 PM 95.9 °F 99.0 °F 65.5 °F 37% 29.77 in 10.0 mi SSE 10.4 mph 18.4 mph N/A   Clear
6:35 PM 95.2 °F 97.8 °F 65.3 °F 37% 29.77 in 10.0 mi South 11.5 mph - N/A   Clear
6:55 PM 95.0 °F 98.5 °F 66.2 °F 39% 29.76 in 10.0 mi South 10.4 mph 17.3 mph N/A   Clear
7:15 PM 92.7 °F 94.9 °F 65.3 °F 40% 29.76 in 10.0 mi South 10.4 mph 16.1 mph N/A   Clear
7:35 PM 90.9 °F 92.7 °F 64.8 °F 42% 29.76 in 10.0 mi South 8.1 mph - N/A   Clear
7:55 PM 88.7 °F 90.8 °F 65.3 °F 46% 29.76 in 10.0 mi SSE 6.9 mph - N/A   Clear
8:15 PM 87.8 °F 89.7 °F 65.1 °F 47% 29.76 in 10.0 mi SSE 6.9 mph - N/A   Mostly Cloudy
8:35 PM 86.0 °F 87.9 °F 65.7 °F 50% 29.76 in 10.0 mi SE 5.8 mph - N/A   Scattered Clouds
8:55 PM 84.0 °F 86.3 °F 66.4 °F 55% 29.77 in 10.0 mi SE 5.8 mph - N/A   Clear
9:15 PM 83.3 °F 85.3 °F 65.8 °F 55% 29.78 in 10.0 mi SE 6.9 mph - N/A   Clear
9:35 PM 83.3 °F 84.8 °F 64.4 °F 53% 29.78 in 10.0 mi SSE 8.1 mph - N/A   Clear
9:55 PM 82.9 °F 84.2 °F 63.5 °F 52% 29.78 in 10.0 mi SSE 9.2 mph - N/A   Clear
10:15 PM 82.2 °F 83.2 °F 62.6 °F 51% 29.79 in 10.0 mi SSE 9.2 mph - N/A   Clear
10:35 PM 81.5 °F 82.4 °F 61.9 °F 51% 29.80 in 10.0 mi SSE 8.1 mph - N/A   Clear
10:55 PM 81.7 °F 82.3 °F 60.8 °F 49% 29.80 in 10.0 mi South 9.2 mph - N/A   Clear
11:15 PM 80.6 °F 81.5 °F 60.8 °F 51% 29.80 in 10.0 mi SSE 8.1 mph - N/A   Clear
11:35 PM 79.7 °F - 61.0 °F 53% 29.80 in 10.0 mi SSE 9.2 mph - N/A   Clear
11:55 PM 79.2 °F - 60.8 °F 53% 29.80 in 10.0 mi SSE 10.4 mph - N/A   Clear